Weather History for Grand Etang, NS

Change the Weather History Date:

Friday, November 23, 2012

  Actual Average Record
Temperature  
Mean Temperature 46 °F -  
Max Temperature 52 °F - - ()
Min Temperature 40 °F - - ()
Degree Days  
Heating Degree Days 19    
Moisture  
Dew Point 36 °F    
Average Humidity 69    
Maximum Humidity 87    
Minimum Humidity 49    
Precipitation  
Precipitation 0.00 in - - ()
Sea Level Pressure  
Sea Level Pressure 29.98 in    
Wind  
Wind Speed 10 mph ()    
Max Wind Speed 17 mph    
Max Gust Speed 24 mph    
T = Trace of Precipitation, MM = Missing Value Source: Averaged Metar Reports

Daily Weather History Graph

Daily Weather History Graph

Search for Another Location

Airport:

Trip Planner

Search our weather history database for the weather conditions in past years. The results will help you decide how hot, cold, wet, or windy it might be!

Date:

Astronomy

Nov. 23, 2012 Rise Set
Actual Time 7:17 AM AST 4:23 PM AST
Civil Twilight 6:44 AM AST 4:56 PM AST
Nautical Twilight 6:07 AM AST 5:34 PM AST
Astronomical Twilight 5:31 AM AST 6:10 PM AST
Moon 1:48 PM AST (11/23) 2:17 AM AST (11/23)
Length of Visible Light 10h 12m
Length of Day
9h 05m
Waxing Gibbous, 79% of the Moon is Illuminated
Nov 23
Waxing Gibbous
Nov 28
Full
Dec 6
Last Quarter
Dec 13
New
Dec 20
First Quarter

Hourly Weather History & Observations

Time (AST) Temp. Windchill Dew Point Humidity Pressure Visibility Wind Dir Wind Speed Gust Speed Precip Events Conditions
12:00 AM 41.0 °F 34.3 °F 32.9 °F 73% 30.12 in - South 11.5 mph - N/A   Unknown
12:20 AM 40.8 °F 35.6 °F 33.1 °F 74% - - SSE 8.1 mph - N/A   Unknown
12:40 AM 40.5 °F 34.1 °F 33.3 °F 75% - - SSE 10.4 mph - N/A   Unknown
1:00 AM 40.8 °F 34.1 °F 33.4 °F 75% 30.10 in - SSE 11.5 mph - N/A   Unknown
1:20 AM 40.8 °F 34.1 °F 33.6 °F 76% - - SSE 11.5 mph - N/A   Unknown
1:40 AM 40.5 °F 34.6 °F 33.4 °F 76% - - SSE 9.2 mph - N/A   Unknown
2:00 AM 40.6 °F 33.8 °F 33.8 °F 77% 30.10 in - SSE 11.5 mph - N/A   Unknown
2:20 AM 40.8 °F 34.1 °F 34.0 °F 77% - - SSE 11.5 mph - N/A   Unknown
2:40 AM 41.0 °F 34.3 °F 34.2 °F 77% - - SSE 11.5 mph - N/A   Unknown
3:00 AM 41.4 °F 33.6 °F 34.5 °F 77% 30.08 in - SSE 15.0 mph 20.7 mph N/A   Unknown
3:20 AM 40.8 °F 34.1 °F 34.2 °F 77% - - SSE 11.5 mph - N/A   Unknown
3:40 AM 40.1 °F 33.2 °F 33.8 °F 78% - - SSE 11.5 mph - N/A   Unknown
4:00 AM 40.6 °F 32.7 °F 34.3 °F 78% 30.07 in - SSE 15.0 mph - N/A   Unknown
4:20 AM 40.8 °F 34.1 °F 34.3 °F 78% - - SSE 11.5 mph - N/A   Unknown
4:40 AM 40.1 °F 33.6 °F 34.2 °F 79% - - SSE 10.4 mph - N/A   Unknown
5:00 AM 40.5 °F 33.6 °F 34.3 °F 79% 30.07 in - SSE 11.5 mph - N/A   Unknown
5:20 AM 40.6 °F 34.3 °F 34.5 °F 79% - - SSE 10.4 mph - N/A   Unknown
5:40 AM 41.0 °F 34.3 °F 34.5 °F 78% - - SSE 11.5 mph 18.4 mph N/A   Unknown
6:00 AM 40.8 °F 34.1 °F 34.5 °F 78% 30.06 in - SSE 11.5 mph - N/A   Unknown
6:20 AM 41.0 °F 34.3 °F 34.5 °F 78% - - SSE 11.5 mph - N/A   Unknown
6:40 AM 40.3 °F 33.9 °F 34.3 °F 79% - - SSE 10.4 mph - N/A   Unknown
7:00 AM 41.2 °F 34.1 °F 34.9 °F 78% 30.05 in - South 12.7 mph - N/A   Unknown
7:20 AM 42.1 °F 36.1 °F 34.9 °F 76% - - South 10.4 mph - N/A   Unknown
7:40 AM 41.9 °F 35.9 °F 34.9 °F 76% - - South 10.4 mph - N/A   Unknown
8:00 AM 42.3 °F 35.9 °F 35.2 °F 76% 30.05 in - South 11.5 mph - N/A   Unknown
8:20 AM 43.9 °F 38.3 °F 35.8 °F 73% - - South 10.4 mph - N/A   Unknown
8:40 AM 44.8 °F 39.9 °F 36.1 °F 72% - - South 9.2 mph - N/A   Unknown
9:00 AM 45.7 °F 40.2 °F 36.1 °F 69% 30.04 in - South 11.5 mph - N/A   Unknown
9:20 AM 46.8 °F - 36.7 °F 68% - - South 10.4 mph 17.3 mph N/A   Unknown
9:40 AM 47.5 °F - 36.0 °F 64% - - South 11.5 mph - N/A   Unknown
10:00 AM 48.6 °F - 36.3 °F 63% 30.03 in - South 11.5 mph 18.4 mph N/A   Unknown
10:20 AM 49.6 °F - 35.6 °F 59% - - South 11.5 mph - N/A   Unknown
10:40 AM 50.4 °F - 34.9 °F 55% - - South 11.5 mph - N/A   Unknown
11:00 AM 51.1 °F - 34.9 °F 54% 30.01 in - South 12.7 mph - N/A   Unknown
11:20 AM 52.2 °F - 34.9 °F 52% - - South 11.5 mph - N/A   Unknown
11:40 AM 52.7 °F - 35.2 °F 52% - - South 11.5 mph 19.6 mph N/A   Unknown
12:00 PM 52.3 °F - 34.7 °F 51% 29.96 in - SSW 11.5 mph - N/A   Unknown
12:20 PM 51.3 °F - 39.4 °F 64% - - SW 12.7 mph - N/A   Unknown
12:40 PM 50.9 °F - 37.9 °F 61% - - SW 12.7 mph - N/A   Unknown
1:00 PM 50.5 °F - 39.2 °F 65% 29.95 in - SW 13.8 mph - N/A   Unknown
1:20 PM 50.5 °F - 39.4 °F 66% - - SW 13.8 mph - N/A   Unknown
1:40 PM 49.5 °F - 40.8 °F 72% - - SW 13.8 mph - N/A   Unknown
2:00 PM 49.8 °F - 41.2 °F 72% 29.94 in - SW 13.8 mph - N/A   Unknown
2:20 PM 50.5 °F - 41.5 °F 71% - - SW 6.9 mph - N/A   Unknown
2:40 PM 50.7 °F - 41.2 °F 70% - - SSW 6.9 mph - N/A   Unknown
3:00 PM 51.3 °F - 41.2 °F 68% 29.91 in - SSW 11.5 mph - N/A   Unknown
3:20 PM 50.5 °F - 41.9 °F 72% - - SW 6.9 mph - N/A   Unknown
3:40 PM 49.8 °F - 40.8 °F 71% - - SSW 4.6 mph - N/A   Unknown
4:00 PM 48.2 °F - 39.9 °F 73% 29.91 in - South 6.9 mph - N/A   Unknown
4:20 PM 49.5 °F - 36.7 °F 61% - - SSE 6.9 mph - N/A   Unknown
4:40 PM 48.6 °F - 35.2 °F 60% - - SE 10.4 mph - N/A   Unknown
5:00 PM 47.8 °F - 33.6 °F 58% 29.89 in - SSE 11.5 mph - N/A   Unknown
5:20 PM 48.6 °F - 33.3 °F 56% - - SSE 12.7 mph - N/A   Unknown
5:40 PM 48.0 °F - 34.0 °F 58% - - SE 15.0 mph 20.7 mph N/A   Unknown
6:00 PM 47.1 °F - 31.3 °F 54% 29.88 in - SSE 15.0 mph - N/A   Unknown
6:20 PM 47.1 °F - 30.9 °F 53% - - SE 15.0 mph - N/A   Unknown
6:40 PM 46.4 °F 41.1 °F 30.0 °F 53% - - SSE 11.5 mph - N/A   Unknown
7:00 PM 46.8 °F - 29.1 °F 50% 29.88 in - SE 15.0 mph - N/A   Unknown
7:20 PM 46.2 °F 40.1 °F 31.8 °F 57% - - SSE 13.8 mph - N/A   Unknown
7:40 PM 45.5 °F 38.3 °F 31.3 °F 58% - - SE 17.3 mph 23.0 mph N/A   Unknown
8:00 PM 46.9 °F - 28.6 °F 49% 29.86 in - SE 17.3 mph 24.2 mph N/A   Unknown
8:20 PM 46.9 °F - 31.8 °F 56% - - SSE 13.8 mph 23.0 mph N/A   Unknown
8:40 PM 46.4 °F 41.9 °F 35.4 °F 66% - - SSE 9.2 mph - N/A   Unknown
9:00 PM 44.6 °F 37.4 °F 37.2 °F 75% 29.86 in - SE 16.1 mph 24.2 mph N/A   Unknown
9:20 PM 44.8 °F 41.0 °F 37.8 °F 76% - - South 6.9 mph - N/A   Unknown
9:40 PM 45.1 °F 41.4 °F 37.9 °F 76% - - South 6.9 mph - N/A   Unknown
10:00 PM 44.4 °F 37.5 °F 37.9 °F 78% 29.84 in - South 15.0 mph - N/A   Unknown
10:20 PM 44.1 °F 41.5 °F 40.3 °F 87% - - South 4.6 mph - N/A   Unknown
10:40 PM 43.9 °F 39.9 °F 40.3 °F 87% - - SSW 6.9 mph - N/A   Unknown
11:00 PM 44.8 °F 41.0 °F 39.4 °F 81% 29.82 in - SSE 6.9 mph - N/A   Unknown
11:20 PM 45.7 °F 41.0 °F 39.9 °F 80% - - SSE 9.2 mph 21.9 mph N/A   Unknown
11:40 PM 46.8 °F - 39.9 °F 77% - - SE 5.8 mph - N/A   Unknown